DL1YAU Weather Reports


time (UTC)temp
C
wind
direction
speed
KPH
gust
KPH
rain 1hr
cm
rain 24hr
cm
rain mn
cm
humidity
%
barometer
mb
20260507100413 8 309 3.2 6.4 0.00 0.20 0.20 92 12.3
20260507095413 8 39 1.6 8.0 0.00 0.20 0.20 91 12.2
20260507081412 7 288 6.4 11.3 0.00 0.20 0.20 91 11.1
20260507073412 7 279 6.4 11.3 0.00 0.20 0.20 91 10.6
20260507065411 7 321 4.8 8.0 0.00 0.20 0.20 91 10.3
20260507051411 7 336 4.8 8.0 0.05 0.20 0.20 91 9.3
20260507020409 7 311 4.8 8.0 0.05 0.15 0.15 91 7.9
20260507004409 7 294 1.6 4.8 0.03 0.08 0.08 91 7.6
20260507000414 7 262 1.6 3.2 0.03 0.05 0.05 91 7.4
20260506213414 7 313 4.8 9.7 0.00 1.55 1.55 90 7.0
20260506201412 7 317 4.8 8.0 0.00 1.55 1.55 90 6.6
20260506200412 7 321 4.8 8.0 0.03 1.55 1.55 90 6.5
20260506192412 7 311 3.2 6.4 0.03 1.55 1.55 90 6.1
20260506185411 7 308 4.8 9.7 0.00 1.55 1.55 89 5.8
20260506164411 8 322 4.8 9.7 0.00 1.55 1.55 90 4.9
20260506145410 8 336 1.6 9.7 0.00 1.55 1.55 90 4.7
20260506140409 8 37 1.6 6.4 0.00 1.55 1.55 90 4.3
20260506122414 9 11 1.6 6.4 0.00 1.52 1.52 91 4.0
20260506113413 10 310 4.8 11.3 0.00 1.52 1.52 92 3.7
20260506112413 10 319 1.6 6.4 0.00 1.52 1.52 92 3.6
20260506105413 10 314 4.8 8.0 0.00 1.52 1.52 92 3.6